Regional Weather Roundup
Issued by NWS

Home | Current Version | Previous Version | Text Only | Print | Product List | Glossary Off
Versions: 1 2 3 4 5 6 7 8 9 10 11 12 13 14 15 16 17 18 19 20 21 22 23 24 25 26 27 28 29 30 31 32 33 34 35 36 37 38 39 40 41 42 43 44 45 46 47 48 49 50

000
ASUS43 KLSX 290059
RWRMO

WEATHER SUMMARY FOR MISSOURI
NATIONAL WEATHER SERVICE SPRINGFIELD MO
800 PM CDT FRI JUL 28 2017

NOTE: "FAIR" INDICATES FEW OR NO CLOUDS BELOW 12,000 FEET WITH NO
       SIGNIFICANT WEATHER AND/OR OBSTRUCTIONS TO VISIBILITY.
       CURRENT SKY AND/OR WEATHER CONDITIONS ARE NOT AVAILABLE FOR
       CHILLICOTHE AND FARMINGTON.

MOZ001>031-035>038-043-044-053-054-290200-
...NORTHERN AND WESTERN MISSOURI...

CITY           SKY/WX    TMP DP  RH WIND       PRES   REMARKS
KANSAS CTY INT CLEAR     80  62  54 E9        29.99S
KANSAS C DTWN  CLEAR     84  60  44 E8        29.97R
LEE`S SUMMIT   CLEAR     79  62  56 E6        29.99S
ST JOSEPH      CLEAR     81  65  58 E5        29.98S
CHILLICOTHE      N/A     81  64  56 CALM      29.99S
KIRKSVILLE     CLEAR     78  61  55 NE6       30.01S

$$
MOZ066>068-077>081-088>096-101>105-290200-
...SOUTHWEST MISSOURI...

CITY           SKY/WX    TMP DP  RH WIND       PRES   REMARKS
SPRINGFIELD    CLEAR     80  62  54 N10       29.95R
JOPLIN         CLEAR     82  66  58 NE9       29.95S
BRANSON        MOCLDY    82  66  57 N6        29.94R

$$
MOZ032>034-039>042-045>050-055>058-069>072-290200-
...CENTRAL MISSOURI...

CITY           SKY/WX    TMP DP  RH WIND       PRES   REMARKS
COLUMBIA       CLEAR     78  67  68 NE5       29.98R
JEFFERSON CITY CLEAR     81  66  60 NE7       29.95R
ROLLA          CLEAR     78  62  57 N7        29.98R
SEDALIA        CLEAR     79  66  64 NE5       29.99R
WARRENSBURG    CLEAR     77  61  57 NE3       29.98S

$$
MOZ051-052-059>065-290200-
...EAST CENTRAL MISSOURI...

CITY           SKY/WX    TMP DP  RH WIND       PRES   REMARKS
ST LOUIS INTL  PTCLDY    83  64  52 N14       29.94R
SPIRIT OF STL  PTCLDY    81  66  60 N9        29.93R
ST CHARLES     CLEAR     78  67  68 N8        29.93R

$$
MOZ072>076-082>087-097>100-106>115-290200-
...SOUTH CENTRAL AND SOUTHEAST MISSOURI...

CITY           SKY/WX    TMP DP  RH WIND       PRES   REMARKS
CAPE GIRARDEAU CLEAR     81  66  60 N8        29.87R
FARMINGTON     CLEAR     80  66  62 N8        29.94R
POPLAR BLUFF   CLEAR     81  66  60 N7        29.86R
WEST PLAINS    CLEAR     82  60  47 N10       29.94R

$$




USA.gov is the U.S. government's official web portal to all federal, state and local government web resources and services.